User: anonymous   Login
Location: Unspecified
(0.0000°N, 0.0000°E)
Time: 23:37:55
(UTC+00:00)
Language:

Oscar 19 - Orbit

View from above orbital plane
View from above orbital plane
View from above satellite
View from above satellite

Ground track
Ground track

The orbit data is extracted from the following two-line orbital elements,

1 20442U 90005G   24109.54664729  .00000623  00000-0  24215-3 0  9993
2 20442  98.8808  98.2550 0011805   6.3832 353.7499 14.33490008789298
Epoch (UTC): 18 April 2024 13:07:10
Eccentricity: 0.0011805
inclination: 98.8808°
perigee height: 771 km
apogee height: 788 km
right ascension of ascending node: 98.2550°
argument of perigee: 6.3832°
revolutions per day: 14.33490008
mean anomaly at epoch: 353.7499°
orbit number at epoch: 78929

The dashed part of the orbit path shows where the satellite is in the earth's shadow,  

DLR